Tracking 19281 objects as of 16-Nov-2018
HD Live streaming from Space Station
objects crossing your sky now

GALAXY 3R

Track GALAXY 3R now!
GALAXY 3R is classified as:


NORAD ID: 23741
Int'l Code: 1995-069A
Perigee: 35,764.0 km
Apogee: 35,800.8 km
Inclination: 10.6 °
Period: 1,435.5 minutes
Semi major axis: 42153 km
RCS: 12.3125 m2 (large)
Launch date: December 15, 1995
Source: United States (US)
Launch site: AIR FORCE EASTERN TEST RANGE (AFETR)

24 C-band, 16 Ku-band; North America, Caribbean; 140 television channels.
aabbcc
Your satellite tracking list
Your tracking list is empty




NASA's NSSDC Master Catalog

Two Line Element Set (TLE):
1 23741U 95069A   18319.20682722 -.00000228 +00000-0 +00000-0 0  9990
2 23741 010.6371 035.5108 0004363 252.7777 116.9235 01.00312153084030
Source of the keplerian elements: AFSPC